Time,TemperatureF,DewpointF,PressureIn,WindDirection,WindDirectionDegrees,WindSpeedMPH,WindSpeedGustMPH,Humidity,HourlyPrecipIn,Conditions,Clouds,dailyrainin,SoftwareType,DateUTC
2013-02-18 00:08:00,25.5,10.0,30.15,WNW,292,9.0,22.0,52,0.00,,,0.00,weatherlink.com 1.10,2013-02-18 05:08:00,
2013-02-18 00:23:00,25.5,10.0,30.16,West,267,13.0,23.0,53,0.00,,,0.00,weatherlink.com 1.10,2013-02-18 05:23:00,
2013-02-18 00:38:00,25.4,11.0,30.17,WNW,290,11.0,18.0,54,0.00,,,0.00,weatherlink.com 1.10,2013-02-18 05:38:00,
2013-02-18 00:53:00,25.2,10.0,30.17,West,277,5.0,18.0,52,0.00,,,0.00,weatherlink.com 1.10,2013-02-18 05:53:00,
2013-02-18 01:08:00,25.2,10.0,30.18,WNW,290,8.0,18.0,53,0.00,,,0.00,weatherlink.com 1.10,2013-02-18 06:08:00,
2013-02-18 01:23:00,25.0,9.0,30.18,WNW,295,12.0,15.0,51,0.00,,,0.00,weatherlink.com 1.10,2013-02-18 06:23:00,
2013-02-18 01:38:00,24.9,10.0,30.19,WNW,295,8.0,16.0,54,0.00,,,0.00,weatherlink.com 1.10,2013-02-18 06:38:00,
2013-02-18 01:53:00,24.7,9.0,30.19,WNW,290,9.0,15.0,52,0.00,,,0.00,weatherlink.com 1.10,2013-02-18 06:53:00,
2013-02-18 02:08:00,24.4,10.0,30.19,WNW,295,8.0,14.0,54,0.00,,,0.00,weatherlink.com 1.10,2013-02-18 07:08:00,
2013-02-18 02:23:00,24.3,9.0,30.19,WNW,285,8.0,12.0,53,0.00,,,0.00,weatherlink.com 1.10,2013-02-18 07:23:00,
2013-02-18 02:38:00,24.2,9.0,30.19,WNW,296,8.0,14.0,53,0.00,,,0.00,weatherlink.com 1.10,2013-02-18 07:38:00,
2013-02-18 02:53:00,24.2,10.0,30.19,WNW,294,9.0,15.0,54,0.00,,,0.00,weatherlink.com 1.10,2013-02-18 07:53:00,
2013-02-18 03:08:00,24.2,10.0,30.20,West,281,5.0,19.0,54,0.00,,,0.00,weatherlink.com 1.10,2013-02-18 08:08:00,
2013-02-18 03:23:00,23.8,10.0,30.21,WNW,285,4.0,15.0,55,0.00,,,0.00,weatherlink.com 1.10,2013-02-18 08:23:00,
2013-02-18 03:38:00,23.6,9.0,30.21,WNW,282,6.0,12.0,55,0.00,,,0.00,weatherlink.com 1.10,2013-02-18 08:38:00,
2013-02-18 03:53:00,23.4,8.0,30.22,West,280,8.0,12.0,52,0.00,,,0.00,weatherlink.com 1.10,2013-02-18 08:53:00,
2013-02-18 04:08:00,23.3,8.0,30.22,West,266,8.0,13.0,53,0.00,,,0.00,weatherlink.com 1.10,2013-02-18 09:08:00,
2013-02-18 04:23:00,23.3,8.0,30.23,WNW,284,10.0,17.0,53,0.00,,,0.00,weatherlink.com 1.10,2013-02-18 09:23:00,
2013-02-18 04:38:00,23.2,9.0,30.23,WNW,295,8.0,13.0,55,0.00,,,0.00,weatherlink.com 1.10,2013-02-18 09:38:00,
2013-02-18 04:53:00,23.4,9.0,30.25,WSW,252,7.0,16.0,55,0.00,,,0.00,weatherlink.com 1.10,2013-02-18 09:53:00,
2013-02-18 05:08:00,23.1,9.0,30.26,West,262,2.0,10.0,54,0.00,,,0.00,weatherlink.com 1.10,2013-02-18 10:08:00,
2013-02-18 05:23:00,22.9,8.0,30.26,West,273,8.0,13.0,53,0.00,,,0.00,weatherlink.com 1.10,2013-02-18 10:23:00,
2013-02-18 05:39:00,22.9,8.0,30.27,WNW,290,7.0,13.0,52,0.00,,,0.00,weatherlink.com 1.10,2013-02-18 10:39:00,
2013-02-18 05:54:00,23.1,9.0,30.27,West,281,8.0,14.0,56,0.00,,,0.00,weatherlink.com 1.10,2013-02-18 10:54:00,
2013-02-18 06:24:00,22.9,8.0,30.29,West,278,8.0,14.0,54,0.00,,,0.00,weatherlink.com 1.10,2013-02-18 11:24:00,
2013-02-18 06:39:00,22.8,8.0,30.30,West,271,6.0,14.0,54,0.00,,,0.00,weatherlink.com 1.10,2013-02-18 11:39:00,
2013-02-18 06:54:00,22.7,9.0,30.30,WSW,255,8.0,10.0,56,0.00,,,0.00,weatherlink.com 1.10,2013-02-18 11:54:00,
2013-02-18 07:09:00,22.8,8.0,30.31,West,266,5.0,8.0,54,0.00,,,0.00,weatherlink.com 1.10,2013-02-18 12:09:00,
2013-02-18 07:24:00,23.2,9.0,30.32,West,276,8.0,12.0,55,0.00,,,0.00,weatherlink.com 1.10,2013-02-18 12:24:00,
2013-02-18 07:39:00,23.4,8.0,30.32,WSW,255,4.0,12.0,53,0.00,,,0.00,weatherlink.com 1.10,2013-02-18 12:39:00,
2013-02-18 07:54:00,23.8,9.0,30.33,WNW,293,9.0,12.0,54,0.00,,,0.00,weatherlink.com 1.10,2013-02-18 12:54:00,
2013-02-18 08:09:00,24.2,9.0,30.33,WNW,288,13.0,16.0,52,0.00,,,0.00,weatherlink.com 1.10,2013-02-18 13:09:00,
2013-02-18 08:24:00,24.4,9.0,30.33,WNW,297,8.0,16.0,52,0.00,,,0.00,weatherlink.com 1.10,2013-02-18 13:24:00,
2013-02-18 08:39:00,24.8,10.0,30.34,West,276,11.0,17.0,54,0.00,,,0.00,weatherlink.com 1.10,2013-02-18 13:39:00,
2013-02-18 08:54:00,25.3,10.0,30.34,WNW,294,13.0,18.0,52,0.00,,,0.00,weatherlink.com 1.10,2013-02-18 13:54:00,
2013-02-18 09:09:00,25.4,9.0,30.34,WNW,294,12.0,16.0,50,0.00,,,0.00,weatherlink.com 1.10,2013-02-18 14:09:00,
2013-02-18 09:24:00,25.8,10.0,30.34,WSW,245,10.0,16.0,51,0.00,,,0.00,weatherlink.com 1.10,2013-02-18 14:24:00,
2013-02-18 09:39:00,26.0,9.0,30.34,WNW,288,12.0,16.0,48,0.00,,,0.00,weatherlink.com 1.10,2013-02-18 14:39:00,
2013-02-18 09:54:00,26.6,9.0,30.34,WNW,295,10.0,16.0,48,0.00,,,0.00,weatherlink.com 1.10,2013-02-18 14:54:00,
2013-02-18 10:09:00,27.3,8.0,30.34,NW,304,9.0,14.0,45,0.00,,,0.00,weatherlink.com 1.10,2013-02-18 15:09:00,
2013-02-18 10:24:00,27.8,10.0,30.34,West,267,7.0,13.0,47,0.00,,,0.00,weatherlink.com 1.10,2013-02-18 15:24:00,
2013-02-18 10:39:00,28.2,9.0,30.34,NW,309,8.0,13.0,44,0.00,,,0.00,weatherlink.com 1.10,2013-02-18 15:39:00,
2013-02-18 10:54:00,28.7,8.0,30.33,West,276,5.0,10.0,42,0.00,,,0.00,weatherlink.com 1.10,2013-02-18 15:54:00,
2013-02-18 11:09:00,29.1,10.0,30.33,West,260,1.0,11.0,44,0.00,,,0.00,weatherlink.com 1.10,2013-02-18 16:09:00,
2013-02-18 11:24:00,29.8,9.0,30.32,SSW,211,2.0,10.0,41,0.00,,,0.00,weatherlink.com 1.10,2013-02-18 16:24:00,
2013-02-18 11:39:00,30.4,9.0,30.32,West,281,4.0,12.0,41,0.00,,,0.00,weatherlink.com 1.10,2013-02-18 16:39:00,
2013-02-18 11:54:00,31.0,7.0,30.31,WNW,300,8.0,14.0,37,0.00,,,0.00,weatherlink.com 1.10,2013-02-18 16:54:00,
2013-02-18 12:09:00,31.8,9.0,30.30,WNW,298,2.0,13.0,38,0.00,,,0.00,weatherlink.com 1.10,2013-02-18 17:09:00,
2013-02-18 12:25:00,32.3,8.0,30.30,WNW,284,2.0,14.0,36,0.00,,,0.00,weatherlink.com 1.10,2013-02-18 17:25:00,
2013-02-18 12:40:00,33.2,10.0,30.29,NW,304,6.0,10.0,38,0.00,,,0.00,weatherlink.com 1.10,2013-02-18 17:40:00,
2013-02-18 12:55:00,34.1,9.0,30.28,SW,236,1.0,8.0,35,0.00,,,0.00,weatherlink.com 1.10,2013-02-18 17:55:00,
2013-02-18 13:10:00,34.5,9.0,30.27,SW,229,3.0,10.0,34,0.00,,,0.00,weatherlink.com 1.10,2013-02-18 18:10:00,
2013-02-18 13:25:00,35.3,9.0,30.27,WNW,287,8.0,11.0,34,0.00,,,0.00,weatherlink.com 1.10,2013-02-18 18:25:00,
2013-02-18 13:40:00,35.6,8.0,30.26,West,278,4.0,9.0,32,0.00,,,0.00,weatherlink.com 1.10,2013-02-18 18:40:00,
2013-02-18 13:55:00,36.4,9.0,30.25,WSW,240,4.0,9.0,32,0.00,,,0.00,weatherlink.com 1.10,2013-02-18 18:55:00,
2013-02-18 14:10:00,36.3,7.0,30.24,WNW,291,2.0,8.0,30,0.00,,,0.00,weatherlink.com 1.10,2013-02-18 19:10:00,
2013-02-18 14:25:00,37.1,9.0,30.24,WSW,252,7.0,11.0,31,0.00,,,0.00,weatherlink.com 1.10,2013-02-18 19:25:00,
2013-02-18 14:40:00,37.6,9.0,30.24,West,281,3.0,10.0,31,0.00,,,0.00,weatherlink.com 1.10,2013-02-18 19:40:00,
2013-02-18 14:55:00,38.1,9.0,30.23,WSW,245,5.0,11.0,30,0.00,,,0.00,weatherlink.com 1.10,2013-02-18 19:55:00,
2013-02-18 15:10:00,39.0,10.0,30.22,South,177,3.0,5.0,30,0.00,,,0.00,weatherlink.com 1.10,2013-02-18 20:10:00,
2013-02-18 15:25:00,39.9,10.0,30.22,SSW,203,6.0,8.0,29,0.00,,,0.00,weatherlink.com 1.10,2013-02-18 20:25:00,
2013-02-18 15:40:00,37.4,20.0,30.22,SE,125,8.0,13.0,49,0.00,,,0.00,weatherlink.com 1.10,2013-02-18 20:40:00,
2013-02-18 15:55:00,38.2,17.0,30.22,SE,125,8.0,11.0,42,0.00,,,0.00,weatherlink.com 1.10,2013-02-18 20:55:00,
2013-02-18 16:10:00,38.5,17.0,30.22,SSW,210,4.0,9.0,42,0.00,,,0.00,weatherlink.com 1.10,2013-02-18 21:10:00,
2013-02-18 16:25:00,38.3,20.0,30.22,South,172,6.0,8.0,48,0.00,,,0.00,weatherlink.com 1.10,2013-02-18 21:25:00,
2013-02-18 16:40:00,38.0,20.0,30.21,SSE,149,6.0,8.0,48,0.00,,,0.00,weatherlink.com 1.10,2013-02-18 21:40:00,
2013-02-18 16:55:00,36.9,21.0,30.21,SE,142,5.0,11.0,52,0.00,,,0.00,weatherlink.com 1.10,2013-02-18 21:55:00,
2013-02-18 17:10:00,36.2,21.0,30.22,SE,142,4.0,9.0,55,0.00,,,0.00,weatherlink.com 1.10,2013-02-18 22:10:00,
2013-02-18 17:25:00,36.1,22.0,30.22,SSW,193,7.0,10.0,56,0.00,,,0.00,weatherlink.com 1.10,2013-02-18 22:25:00,
2013-02-18 17:40:00,35.6,22.0,30.22,South,174,3.0,7.0,59,0.00,,,0.00,weatherlink.com 1.10,2013-02-18 22:40:00,
2013-02-18 17:55:00,35.5,23.0,30.22,South,188,4.0,6.0,60,0.00,,,0.00,weatherlink.com 1.10,2013-02-18 22:55:00,
2013-02-18 18:10:00,35.3,23.0,30.23,SSE,162,1.0,4.0,62,0.00,,,0.00,weatherlink.com 1.10,2013-02-18 23:10:00,
2013-02-18 18:25:00,35.3,25.0,30.23,SSE,152,2.0,4.0,66,0.00,,,0.00,weatherlink.com 1.10,2013-02-18 23:25:00,
2013-02-18 18:40:00,35.2,26.0,30.23,SSW,193,1.0,2.0,68,0.00,,,0.00,weatherlink.com 1.10,2013-02-18 23:40:00,
2013-02-18 18:55:00,35.2,27.0,30.23,SSE,160,2.0,4.0,71,0.00,,,0.00,weatherlink.com 1.10,2013-02-18 23:55:00,
2013-02-18 19:10:00,35.6,27.0,30.22,SSE,153,1.0,4.0,70,0.00,,,0.00,weatherlink.com 1.10,2013-02-19 00:10:00,
2013-02-18 19:25:00,35.9,24.0,30.22,SSE,158,1.0,3.0,63,0.00,,,0.00,weatherlink.com 1.10,2013-02-19 00:25:00,
2013-02-18 19:40:00,36.5,26.0,30.22,SSE,157,3.0,8.0,66,0.00,,,0.00,weatherlink.com 1.10,2013-02-19 00:40:00,
2013-02-18 19:55:00,36.3,27.0,30.21,SSE,160,9.0,9.0,70,0.00,,,0.00,weatherlink.com 1.10,2013-02-19 00:55:00,
2013-02-18 20:10:00,36.1,29.0,30.21,SE,145,3.0,11.0,74,0.00,,,0.00,weatherlink.com 1.10,2013-02-19 01:10:00,
2013-02-18 20:25:00,35.8,28.0,30.20,SE,142,3.0,10.0,74,0.00,,,0.00,weatherlink.com 1.10,2013-02-19 01:25:00,
2013-02-18 20:40:00,35.7,28.0,30.20,South,188,6.0,11.0,74,0.00,,,0.00,weatherlink.com 1.10,2013-02-19 01:40:00,
2013-02-18 20:55:00,35.8,29.0,30.20,SE,143,6.0,11.0,77,0.00,,,0.00,weatherlink.com 1.10,2013-02-19 01:55:00,
2013-02-18 21:11:00,35.7,29.0,30.20,SE,138,3.0,11.0,77,0.00,,,0.00,weatherlink.com 1.10,2013-02-19 02:11:00,
2013-02-18 21:26:00,35.6,29.0,30.20,SSE,150,6.0,11.0,77,0.00,,,0.00,weatherlink.com 1.10,2013-02-19 02:26:00,
2013-02-18 21:41:00,35.8,30.0,30.19,SSE,148,6.0,12.0,78,0.00,,,0.00,weatherlink.com 1.10,2013-02-19 02:41:00,
2013-02-18 21:56:00,36.2,31.0,30.18,SSE,162,8.0,14.0,80,0.00,,,0.00,weatherlink.com 1.10,2013-02-19 02:56:00,
2013-02-18 22:11:00,36.4,31.0,30.17,SSE,153,7.0,11.0,80,0.00,,,0.00,weatherlink.com 1.10,2013-02-19 03:11:00,
2013-02-18 22:26:00,36.5,31.0,30.17,SSE,167,9.0,11.0,81,0.00,,,0.00,weatherlink.com 1.10,2013-02-19 03:26:00,
2013-02-18 22:41:00,36.8,32.0,30.16,SSE,165,6.0,12.0,81,0.00,,,0.00,weatherlink.com 1.10,2013-02-19 03:41:00,
2013-02-18 23:11:00,37.7,31.0,30.16,ESE,114,6.0,11.0,76,0.00,,,0.00,weatherlink.com 1.10,2013-02-19 04:11:00,
2013-02-18 23:26:00,37.9,31.0,30.16,South,174,3.0,10.0,75,0.00,,,0.00,weatherlink.com 1.10,2013-02-19 04:26:00,
2013-02-18 23:41:00,37.9,31.0,30.16,South,169,4.0,10.0,77,0.00,,,0.00,weatherlink.com 1.10,2013-02-19 04:41:00,
2013-02-18 23:56:00,37.8,31.0,30.15,SSW,193,5.0,11.0,77,0.00,,,0.00,weatherlink.com 1.10,2013-02-19 04:56:00,